OAS9630 SKBO-SKCG

Flight info

Callsign OAS9630
Flight time 1h 2m
Altitude 33000
Route OSUSU4R GIKPU UQ120 DIBAM UW10 UGREB UGREB3B
Aircraft A320/M-SDE3FGHIRWY/LB1

Departure

Time 2026-04-21 03:05
Airport El Dorado International Airport (SKBO)

Arrival

Time 2026-04-21 04:07
Airport Rafael Nuñez International Airport (SKCG)
Time Latitude Longitude Altitude Speed Heading
2026-04-21 02:52 4.69828 -74.14589 8370 ft 0 kts 68°
2026-04-21 02:55 4.69824 -74.14598 8370 ft 3 kts 68°
2026-04-21 02:55 4.69817 -74.14615 8371 ft 3 kts 61°
2026-04-21 02:55 4.69806 -74.14629 8370 ft 3 kts 23°
2026-04-21 02:56 4.69788 -74.14632 8370 ft 3 kts 345°
2026-04-21 02:56 4.69781 -74.14630 8370 ft 0 kts 335°
2026-04-21 02:58 4.69783 -74.14632 8370 ft 1 kts 331°
2026-04-21 02:58 4.69800 -74.14645 8371 ft 5 kts 318°
2026-04-21 02:58 4.69831 -74.14683 8370 ft 9 kts 307°
2026-04-21 02:58 4.69886 -74.14715 8370 ft 11 kts 18°
2026-04-21 02:59 4.69960 -74.14664 8370 ft 15 kts 36°
2026-04-21 02:59 4.70051 -74.14595 8370 ft 18 kts 38°
2026-04-21 02:59 4.70160 -74.14512 8370 ft 21 kts 36°
2026-04-21 02:59 4.70289 -74.14415 8371 ft 23 kts 37°
2026-04-21 03:00 4.70413 -74.14333 8370 ft 10 kts 358°
2026-04-21 03:00 4.70456 -74.14372 8370 ft 11 kts 309°
2026-04-21 03:00 4.70524 -74.14459 8370 ft 18 kts 308°
2026-04-21 03:00 4.70605 -74.14563 8370 ft 21 kts 307°
2026-04-21 03:01 4.70698 -74.14685 8370 ft 23 kts 307°
2026-04-21 03:01 4.70798 -74.14819 8370 ft 24 kts 308°
2026-04-21 03:01 4.70894 -74.14950 8370 ft 24 kts 308°
2026-04-21 03:01 4.70996 -74.15079 8370 ft 24 kts 307°
2026-04-21 03:02 4.71076 -74.15189 8370 ft 19 kts 310°
2026-04-21 03:02 4.71155 -74.15221 8371 ft 11 kts 354°
2026-04-21 03:02 4.71193 -74.15225 8370 ft 0 kts 353°
2026-04-21 03:03 4.71210 -74.15227 8371 ft 5 kts 353°
2026-04-21 03:03 4.71256 -74.15233 8371 ft 9 kts 353°
2026-04-21 03:03 4.71321 -74.15210 8370 ft 11 kts 48°
2026-04-21 03:03 4.71294 -74.15150 8369 ft 10 kts 130°
2026-04-21 03:04 4.71193 -74.15023 8369 ft 52 kts 129°
2026-04-21 03:04 4.70848 -74.14560 8370 ft 111 kts 134°
2026-04-21 03:04 4.70280 -74.13806 8368 ft 159 kts 127°
2026-04-21 03:04 4.69522 -74.12822 8450 ft 190 kts 128°
2026-04-21 03:05 4.68739 -74.11796 9211 ft 183 kts 126°
2026-04-21 03:05 4.68136 -74.10701 9840 ft 177 kts 101°
2026-04-21 03:05 4.68173 -74.09487 10253 ft 176 kts 69°
2026-04-21 03:05 4.68841 -74.08473 10592 ft 176 kts 38°
2026-04-21 03:06 4.69931 -74.07951 10925 ft 176 kts
2026-04-21 03:06 4.71164 -74.07922 11197 ft 182 kts 359°
2026-04-21 03:06 4.72480 -74.07931 11340 ft 197 kts 359°
2026-04-21 03:06 4.73912 -74.07932 11464 ft 215 kts
2026-04-21 03:07 4.75417 -74.07592 11646 ft 231 kts 18°
2026-04-21 03:07 4.76988 -74.07061 11892 ft 244 kts 18°
2026-04-21 03:07 4.78615 -74.06516 12324 ft 249 kts 18°
2026-04-21 03:07 4.80303 -74.05951 12619 ft 264 kts 18°
2026-04-21 03:08 4.82106 -74.05343 12929 ft 281 kts 18°
2026-04-21 03:08 4.84011 -74.04699 13224 ft 297 kts 18°
2026-04-21 03:08 4.86009 -74.04026 13661 ft 307 kts 18°
2026-04-21 03:08 4.88045 -74.03337 14280 ft 311 kts 18°
2026-04-21 03:09 4.90101 -74.02641 14848 ft 313 kts 18°
2026-04-21 03:09 4.92176 -74.01937 15400 ft 316 kts 18°
2026-04-21 03:09 4.94270 -74.01225 15951 ft 319 kts 18°
2026-04-21 03:09 4.96387 -74.00503 16504 ft 323 kts 19°
2026-04-21 03:10 4.98518 -73.99777 17027 ft 326 kts 18°
2026-04-21 03:10 5.00678 -73.99045 17556 ft 329 kts 18°
2026-04-21 03:10 5.02873 -73.98338 18085 ft 332 kts 16°
2026-04-21 03:10 5.05121 -73.97727 18541 ft 339 kts 14°
2026-04-21 03:11 5.07427 -73.97162 18669 ft 354 kts 13°
2026-04-21 03:11 5.09872 -73.96587 18774 ft 369 kts 13°
2026-04-21 03:11 5.12411 -73.95992 18936 ft 380 kts 13°
2026-04-21 03:11 5.15009 -73.95373 19284 ft 385 kts 13°
2026-04-21 03:12 5.17623 -73.94738 19701 ft 388 kts 13°
2026-04-21 03:12 5.20256 -73.94087 20124 ft 392 kts 14°
2026-04-21 03:12 5.22913 -73.93424 20551 ft 395 kts 14°
2026-04-21 03:12 5.25592 -73.92751 20964 ft 398 kts 14°
2026-04-21 03:13 5.28283 -73.92076 21373 ft 401 kts 14°
2026-04-21 03:13 5.31005 -73.91394 21780 ft 404 kts 14°
2026-04-21 03:13 5.33740 -73.90711 22189 ft 408 kts 14°
2026-04-21 03:13 5.36512 -73.90022 22603 ft 411 kts 13°
2026-04-21 03:14 5.39295 -73.89332 23028 ft 414 kts 13°
2026-04-21 03:14 5.42093 -73.88639 23436 ft 416 kts 13°
2026-04-21 03:14 5.44925 -73.87935 23838 ft 419 kts 14°
2026-04-21 03:14 5.47758 -73.87229 24169 ft 422 kts 14°
2026-04-21 03:15 5.50615 -73.86517 24499 ft 424 kts 14°
2026-04-21 03:15 5.53483 -73.85804 24826 ft 426 kts 13°
2026-04-21 03:15 5.56384 -73.85136 25148 ft 428 kts 12°
2026-04-21 03:15 5.59308 -73.84522 25459 ft 430 kts 11°
2026-04-21 03:16 5.62249 -73.83937 25771 ft 432 kts 11°
2026-04-21 03:16 5.65213 -73.83358 26080 ft 435 kts 11°
2026-04-21 03:16 5.68195 -73.82772 26381 ft 437 kts 11°
2026-04-21 03:16 5.71179 -73.82174 26682 ft 439 kts 11°
2026-04-21 03:17 5.74173 -73.81561 26966 ft 441 kts 11°
2026-04-21 03:17 5.77193 -73.80937 27246 ft 443 kts 12°
2026-04-21 03:17 5.80176 -73.80317 27518 ft 445 kts 12°
2026-04-21 03:17 5.83217 -73.79686 27782 ft 447 kts 11°
2026-04-21 03:18 5.86269 -73.79054 28053 ft 449 kts 11°
2026-04-21 03:18 5.89371 -73.78411 28325 ft 451 kts 11°
2026-04-21 03:18 5.92409 -73.77784 28579 ft 453 kts 11°
2026-04-21 03:18 5.95500 -73.77148 28839 ft 455 kts 11°
2026-04-21 03:19 5.98605 -73.76509 29093 ft 456 kts 11°
2026-04-21 03:19 6.01717 -73.75869 29337 ft 458 kts 11°
2026-04-21 03:19 6.04857 -73.75224 29575 ft 460 kts 11°
2026-04-21 03:19 6.07997 -73.74578 29812 ft 462 kts 11°
2026-04-21 03:20 6.11157 -73.73927 30038 ft 464 kts 11°
2026-04-21 03:20 6.14322 -73.73275 30243 ft 466 kts 11°
2026-04-21 03:20 6.17502 -73.72621 30446 ft 467 kts 11°
2026-04-21 03:20 6.20686 -73.71964 30648 ft 468 kts 11°
2026-04-21 03:21 6.23885 -73.71304 30839 ft 469 kts 11°
2026-04-21 03:21 6.27078 -73.70647 31027 ft 470 kts 11°
2026-04-21 03:21 6.30298 -73.69984 31209 ft 472 kts 11°
2026-04-21 03:21 6.33509 -73.69324 31385 ft 473 kts 11°
2026-04-21 03:22 6.36743 -73.68659 31582 ft 473 kts 11°
2026-04-21 03:22 6.39957 -73.67995 31842 ft 472 kts 11°
2026-04-21 03:22 6.43176 -73.67327 32101 ft 472 kts 11°
2026-04-21 03:22 6.46389 -73.66662 32338 ft 471 kts 11°
2026-04-21 03:23 6.49603 -73.66001 32568 ft 471 kts 11°
2026-04-21 03:23 6.52813 -73.65342 32800 ft 471 kts 11°
2026-04-21 03:23 6.56029 -73.64681 32998 ft 472 kts 11°
2026-04-21 03:23 6.59223 -73.64021 33062 ft 462 kts 11°
2026-04-21 03:24 6.65416 -73.62746 33054 ft 453 kts 11°
2026-04-21 03:24 6.71585 -73.61471 33043 ft 453 kts 11°
2026-04-21 03:25 6.77816 -73.60179 33020 ft 463 kts 12°
2026-04-21 03:25 6.84206 -73.58854 33004 ft 475 kts 11°
2026-04-21 03:26 6.90742 -73.57504 32990 ft 484 kts 11°
2026-04-21 03:26 6.97404 -73.56244 32978 ft 488 kts
2026-04-21 03:27 7.04179 -73.56352 32974 ft 488 kts 356°
2026-04-21 03:27 7.10917 -73.56678 32972 ft 487 kts 356°
2026-04-21 03:28 7.17687 -73.57006 32973 ft 487 kts 356°
2026-04-21 03:28 7.23352 -73.57283 32982 ft 487 kts 356°
2026-04-21 03:29 7.30117 -73.57607 32989 ft 486 kts 356°
2026-04-21 03:29 7.37970 -73.57983 32987 ft 486 kts 356°
2026-04-21 03:30 7.44451 -73.59583 32967 ft 483 kts 332°
2026-04-21 03:30 7.49403 -73.62220 33506 ft 474 kts 330°
2026-04-21 03:31 7.52243 -73.63755 34017 ft 467 kts 330°
2026-04-21 03:31 7.55132 -73.65315 34333 ft 464 kts 330°
2026-04-21 03:31 7.57976 -73.66846 34565 ft 463 kts 330°
2026-04-21 03:31 7.60820 -73.68375 34766 ft 463 kts 330°
2026-04-21 03:32 7.63623 -73.69879 34957 ft 463 kts 331°
2026-04-21 03:32 7.66471 -73.71406 35147 ft 463 kts 330°
2026-04-21 03:32 7.69317 -73.72927 35341 ft 463 kts 330°
2026-04-21 03:32 7.72163 -73.74443 35531 ft 462 kts 331°
2026-04-21 03:33 7.75005 -73.75957 35710 ft 462 kts 331°
2026-04-21 03:33 7.77855 -73.77472 35889 ft 462 kts 331°
2026-04-21 03:33 7.80694 -73.78978 36056 ft 462 kts 331°
2026-04-21 03:33 7.83537 -73.80484 36229 ft 462 kts 331°
2026-04-21 03:34 7.86378 -73.81986 36389 ft 461 kts 331°
2026-04-21 03:34 7.89218 -73.83485 36555 ft 461 kts 331°
2026-04-21 03:34 7.92068 -73.84983 36696 ft 461 kts 332°
2026-04-21 03:34 7.95081 -73.86078 36878 ft 462 kts 348°
2026-04-21 03:35 8.01299 -73.87689 36983 ft 463 kts 340°
2026-04-21 03:35 8.07424 -73.89684 36514 ft 462 kts 341°
2026-04-21 03:36 8.10475 -73.90672 35978 ft 459 kts 341°
2026-04-21 03:36 8.13509 -73.91656 35464 ft 455 kts 341°
2026-04-21 03:36 8.16514 -73.92633 34969 ft 451 kts 341°
2026-04-21 03:36 8.19462 -73.93666 34498 ft 445 kts 333°
2026-04-21 03:37 8.21952 -73.95409 34084 ft 434 kts 311°
2026-04-21 03:37 8.23598 -73.97895 33546 ft 424 kts 289°
2026-04-21 03:37 8.24163 -74.00775 33096 ft 419 kts 265°
2026-04-21 03:37 8.23587 -74.03645 32956 ft 419 kts 249°
2026-04-21 03:38 8.22770 -74.06463 32987 ft 421 kts 261°
2026-04-21 03:38 8.22756 -74.09415 33002 ft 423 kts 279°
2026-04-21 03:38 8.23652 -74.12248 32999 ft 426 kts 297°
2026-04-21 03:38 8.25377 -74.14683 33001 ft 430 kts 315°
2026-04-21 03:39 8.27760 -74.16506 33003 ft 433 kts 328°
2026-04-21 03:39 8.30377 -74.18008 32995 ft 433 kts 330°
2026-04-21 03:39 8.35665 -74.20941 32994 ft 433 kts 330°
2026-04-21 03:40 8.40969 -74.23876 32988 ft 441 kts 330°
2026-04-21 03:40 8.46448 -74.26912 32981 ft 456 kts 330°
2026-04-21 03:41 8.52093 -74.30039 32977 ft 469 kts 330°
2026-04-21 03:41 8.57862 -74.33238 32971 ft 475 kts 330°
2026-04-21 03:42 8.63660 -74.36455 32970 ft 476 kts 330°
2026-04-21 03:42 8.69465 -74.39674 32965 ft 476 kts 330°
2026-04-21 03:43 8.75271 -74.42889 32963 ft 476 kts 330°
2026-04-21 03:43 8.81074 -74.46102 32958 ft 476 kts 330°
2026-04-21 03:44 8.86769 -74.49251 32954 ft 456 kts 330°
2026-04-21 03:44 8.89509 -74.50763 32735 ft 444 kts 330°
2026-04-21 03:44 8.92218 -74.52257 32126 ft 442 kts 330°
2026-04-21 03:45 8.94911 -74.53745 31527 ft 440 kts 330°
2026-04-21 03:45 8.97589 -74.55232 30899 ft 439 kts 330°
2026-04-21 03:45 9.00265 -74.56727 30208 ft 440 kts 330°
2026-04-21 03:45 9.02939 -74.58232 29442 ft 441 kts 330°
2026-04-21 03:46 9.05620 -74.59750 28656 ft 441 kts 330°
2026-04-21 03:46 9.08289 -74.61278 27892 ft 441 kts 330°
2026-04-21 03:46 9.10951 -74.62828 27156 ft 441 kts 330°
2026-04-21 03:46 9.13588 -74.64406 26438 ft 441 kts 326°
2026-04-21 03:47 9.15854 -74.66424 26087 ft 426 kts 310°
2026-04-21 03:47 9.17569 -74.68751 25852 ft 403 kts 306°
2026-04-21 03:47 9.19179 -74.71039 25630 ft 392 kts 306°
2026-04-21 03:47 9.20743 -74.73266 25400 ft 386 kts 306°
2026-04-21 03:48 9.22290 -74.75476 25174 ft 386 kts 306°
2026-04-21 03:48 9.23838 -74.77692 24948 ft 385 kts 306°
2026-04-21 03:48 9.25383 -74.79907 24723 ft 384 kts 306°
2026-04-21 03:48 9.26918 -74.82114 24508 ft 382 kts 306°
2026-04-21 03:49 9.28524 -74.84220 24142 ft 376 kts 315°
2026-04-21 03:49 9.30447 -74.85943 23689 ft 372 kts 327°
2026-04-21 03:49 9.32596 -74.87459 23157 ft 371 kts 327°
2026-04-21 03:49 9.34677 -74.88933 22690 ft 369 kts 327°
2026-04-21 03:50 9.36770 -74.90426 22232 ft 367 kts 327°
2026-04-21 03:50 9.38848 -74.91912 21780 ft 364 kts 327°
2026-04-21 03:50 9.40909 -74.93387 21342 ft 362 kts 326°
2026-04-21 03:50 9.42969 -74.94860 20892 ft 361 kts 326°
2026-04-21 03:51 9.45011 -74.96320 20457 ft 359 kts 326°
2026-04-21 03:51 9.47050 -74.97773 20019 ft 358 kts 326°
2026-04-21 03:51 9.49081 -74.99221 19580 ft 357 kts 326°
2026-04-21 03:51 9.51104 -75.00668 19148 ft 356 kts 326°
2026-04-21 03:52 9.53129 -75.02114 18694 ft 356 kts 326°
2026-04-21 03:52 9.55154 -75.03554 18316 ft 354 kts 326°
2026-04-21 03:52 9.57161 -75.04981 17871 ft 352 kts 326°
2026-04-21 03:52 9.59161 -75.06406 17451 ft 350 kts 326°
2026-04-21 03:53 9.61142 -75.07816 17036 ft 347 kts 326°
2026-04-21 03:53 9.63114 -75.09225 16618 ft 346 kts 326°
2026-04-21 03:53 9.65071 -75.10626 16213 ft 344 kts 326°
2026-04-21 03:53 9.67016 -75.12019 15812 ft 342 kts 326°
2026-04-21 03:54 9.68958 -75.13406 15416 ft 340 kts 326°
2026-04-21 03:54 9.70890 -75.14782 15024 ft 339 kts 326°
2026-04-21 03:54 9.72818 -75.16154 14622 ft 338 kts 326°
2026-04-21 03:54 9.74741 -75.17513 14229 ft 336 kts 326°
2026-04-21 03:55 9.76682 -75.18832 13836 ft 335 kts 327°
2026-04-21 03:55 9.78605 -75.20108 13398 ft 323 kts 327°
2026-04-21 03:55 9.80446 -75.21321 13023 ft 310 kts 327°
2026-04-21 03:55 9.82236 -75.22502 12650 ft 305 kts 327°
2026-04-21 03:56 9.84011 -75.23675 12270 ft 305 kts 327°
2026-04-21 03:56 9.85785 -75.24852 11906 ft 304 kts 327°
2026-04-21 03:56 9.87547 -75.26025 11517 ft 303 kts 327°
2026-04-21 03:56 9.89308 -75.27199 11148 ft 302 kts 327°
2026-04-21 03:57 9.91057 -75.28370 10763 ft 301 kts 327°
2026-04-21 03:57 9.92805 -75.29546 10372 ft 301 kts 327°
2026-04-21 03:57 9.94524 -75.30702 9970 ft 301 kts 327°
2026-04-21 03:57 9.96273 -75.31874 9554 ft 301 kts 327°
2026-04-21 03:58 9.98011 -75.33035 9144 ft 299 kts 327°
2026-04-21 03:58 9.99744 -75.34194 8740 ft 297 kts 327°
2026-04-21 03:58 10.01470 -75.35350 8313 ft 296 kts 327°
2026-04-21 03:58 10.03180 -75.36495 7895 ft 294 kts 327°
2026-04-21 03:59 10.04883 -75.37635 7506 ft 292 kts 327°
2026-04-21 03:59 10.06574 -75.38768 7055 ft 287 kts 327°
2026-04-21 03:59 10.08208 -75.39862 6620 ft 276 kts 327°
2026-04-21 04:00 10.11330 -75.41953 5765 ft 263 kts 327°
2026-04-21 04:00 10.12858 -75.42974 5357 ft 263 kts 327°
2026-04-21 04:00 10.14381 -75.43991 4940 ft 262 kts 327°
2026-04-21 04:00 10.15905 -75.45011 4513 ft 262 kts 327°
2026-04-21 04:01 10.17417 -75.46024 4097 ft 261 kts 327°
2026-04-21 04:01 10.18919 -75.47031 3813 ft 253 kts 327°
2026-04-21 04:01 10.20342 -75.47987 3745 ft 238 kts 327°
2026-04-21 04:01 10.21683 -75.48887 3660 ft 225 kts 327°
2026-04-21 04:02 10.22955 -75.49739 3557 ft 213 kts 327°
2026-04-21 04:02 10.24157 -75.50547 3460 ft 202 kts 328°
2026-04-21 04:02 10.25327 -75.51329 3379 ft 202 kts 328°
2026-04-21 04:02 10.26588 -75.51893 3123 ft 201 kts 349°
2026-04-21 04:03 10.27980 -75.51955 2862 ft 197 kts
2026-04-21 04:03 10.29330 -75.51899 2612 ft 196 kts
2026-04-21 04:03 10.30693 -75.51845 2353 ft 195 kts
2026-04-21 04:03 10.32044 -75.51790 2113 ft 193 kts
2026-04-21 04:04 10.33360 -75.51737 1859 ft 183 kts
2026-04-21 04:04 10.34588 -75.51687 1622 ft 170 kts
2026-04-21 04:04 10.35715 -75.51641 1415 ft 154 kts
2026-04-21 04:04 10.36734 -75.51599 1232 ft 140 kts
2026-04-21 04:05 10.37706 -75.51559 1052 ft 141 kts
2026-04-21 04:05 10.38682 -75.51519 875 ft 141 kts
2026-04-21 04:05 10.39661 -75.51478 700 ft 142 kts
2026-04-21 04:05 10.40649 -75.51438 527 ft 138 kts
2026-04-21 04:06 10.41629 -75.51398 339 ft 143 kts
2026-04-21 04:06 10.42601 -75.51358 156 ft 140 kts
2026-04-21 04:06 10.43567 -75.51325 27 ft 133 kts
2026-04-21 04:06 10.44380 -75.51294 18 ft 87 kts
2026-04-21 04:07 10.44663 -75.51299 17 ft 12 kts 319°
2026-04-21 04:07 10.44668 -75.51337 17 ft 4 kts 244°
2026-04-21 04:07 10.44654 -75.51358 18 ft 3 kts 234°
2026-04-21 04:07 10.44642 -75.51377 17 ft 3 kts 240°
2026-04-21 04:08 10.44637 -75.51394 16 ft 2 kts 256°
2026-04-21 04:08 10.44635 -75.51426 16 ft 9 kts 271°
2026-04-21 04:08 10.44644 -75.51486 16 ft 8 kts 280°
2026-04-21 04:08 10.44649 -75.51537 16 ft 7 kts 271°
2026-04-21 04:09 10.44650 -75.51560 16 ft 0 kts 272°